Sister Bay, Wisconsin, United States (54234)
Lat: 45.19N, Lon: 87.12W
Wx Zone: WIZ022
Local Info
Past Weather Observations for Tuesday, February 24, 2015

NOTE: This archive is for the closest National Weather Service station to Sister Bay. Information may differ from the station used for current weather conditions.

Click here for Long-term Archive

Time Weather Temperature Dewpoint Humidity Pressure Winds Precip Visibility
23:55
Clear
°F / -18°C -9°F / -23°C 65% 29.77 in
(1008 mb)
NW 4.6 mph
(NW 7 kph)
- 10SM
23:35
Clear
1°F / -17°C -8°F / -22°C 65% 29.77 in
(1008 mb)
NW 5.8 mph
(NW 9 kph)
- 10SM
23:15
Clear
1°F / -17°C -8°F / -22°C 65% 29.77 in
(1008 mb)
NW 6.9 mph
(NW 11 kph)
- 10SM
22:55
Clear
3°F / -16°C -8°F / -22°C 60% 29.77 in
(1008 mb)
NW 8.1 mph
(NW 13 kph)
- 10SM
22:35
Clear
3°F / -16°C -8°F / -22°C 60% 29.77 in
(1008 mb)
NW 10.4 mph
(NW 17 kph)
- 10SM
22:15
Clear
3°F / -16°C -8°F / -22°C 60% 29.77 in
(1008 mb)
NW 12.7 mph
(NW 20 kph)
- 10SM
21:55
Clear
3°F / -16°C -8°F / -22°C 60% 29.74 in
(1007 mb)
NW 10.4 mph
(NW 17 kph)
- 10SM
21:35
Clear
5°F / -15°C -8°F / -22°C 55% 29.74 in
(1007 mb)
NW 9.2 mph
(NW 15 kph)
- 10SM
21:15
Clear
5°F / -15°C -8°F / -22°C 55% 29.74 in
(1007 mb)
NW 11.5 mph
(NW 19 kph)
- 10SM
20:55
Clear
5°F / -15°C -6°F / -21°C 60% 29.71 in
(1006 mb)
NW 16.1 mph
(NW 26 kph)
- 10SM
20:35
Clear
7°F / -14°C -6°F / -21°C 56% 29.71 in
(1006 mb)
NW 19.6 mph
(NW 32 kph)
- 10SM
20:15
Clear
7°F / -14°C -4°F / -20°C 61% 29.71 in
(1006 mb)
NW 18.4 mph
(NW 30 kph)
- 10SM
19:55
Clear
9°F / -13°C -4°F / -20°C 56% 29.68 in
(1005 mb)
NNW 20.7 mph
(NNW 33 kph)
- 10SM
19:35
Clear
9°F / -13°C -4°F / -20°C 56% 29.68 in
(1005 mb)
NNW 23 mph
(NNW 37 kph)
- 10SM
19:15
Clear
10°F / -12°C -2°F / -19°C 56% 29.65 in
(1004 mb)
NNW 17.3 mph
(NNW 28 kph)
- 10SM
18:55
Clear
10°F / -12°C 1°F / -17°C 67% 29.65 in
(1004 mb)
NNW 20.7 mph
(NNW 33 kph)
- 10SM
18:35
Clear
12°F / -11°C 3°F / -16°C 67% 29.62 in
(1003 mb)
NNW 17.3 mph
(NNW 28 kph)
- 10SM
18:15
Clear
14°F / -10°C 3°F / -16°C 62% 29.59 in
(1002 mb)
N 25.3 mph
(N 41 kph)
- 10SM
17:55
Clear
16°F / -9°C 1°F / -17°C 53% 29.56 in
(1001 mb)
NNW 20.7 mph
(NNW 33 kph)
- 10SM
17:35
Clear
19°F / -7°C -2°F / -19°C 38% 29.56 in
(1001 mb)
NW 19.6 mph
(NW 32 kph)
- 10SM
17:15
Clear
21°F / -6°C °F / -18°C 38% 29.53 in
(1000 mb)
NW 16.1 mph
(NW 26 kph)
- 10SM
16:55
Clear
21°F / -6°C 1°F / -17°C 42% 29.5 in
(999 mb)
NW 24.2 mph
(NW 39 kph)
- 7SM
16:35
Clear
23°F / -5°C 1°F / -17°C 39% 29.5 in
(999 mb)
NW 18.4 mph
(NW 30 kph)
- 10SM
16:15
Partly Cloudy
23°F / -5°C 1°F / -17°C 39% 29.47 in
(998 mb)
WNW 25.3 mph
(WNW 41 kph)
- 7SM
15:55
Clear
25°F / -4°C 1°F / -17°C 36% 29.47 in
(998 mb)
NW 23 mph
(NW 37 kph)
- 10SM
15:35
Clear
Hazy
25°F / -4°C 1°F / -17°C 36% 29.47 in
(998 mb)
NW 26.5 mph
(NW 43 kph)
- 3SM
15:15
Clear
25°F / -4°C 3°F / -16°C 39% 29.47 in
(998 mb)
NW 19.6 mph
(NW 32 kph)
- 7SM
14:55
Clear
25°F / -4°C 5°F / -15°C 42% 29.47 in
(998 mb)
NW 23 mph
(NW 37 kph)
- 7SM
14:35
Clear
Hazy
25°F / -4°C 3°F / -16°C 39% 29.44 in
(997 mb)
NW 26.5 mph
(NW 43 kph)
- 3SM
14:15
Clear
27°F / -3°C 5°F / -15°C 39% 29.44 in
(997 mb)
WNW 21.9 mph
(WNW 35 kph)
- 7SM
13:55
Clear
27°F / -3°C 3°F / -16°C 36% 29.44 in
(997 mb)
NW 18.4 mph
(NW 30 kph)
- 10SM
13:35
Clear
Hazy
25°F / -4°C 5°F / -15°C 42% 29.44 in
(997 mb)
NW 19.6 mph
(NW 32 kph)
- 4SM
13:15
Partly Cloudy
Hazy
27°F / -3°C 9°F / -13°C 46% 29.44 in
(997 mb)
NW 19.6 mph
(NW 32 kph)
- 5SM
12:55
Partly Cloudy
27°F / -3°C 9°F / -13°C 46% 29.44 in
(997 mb)
W 24.2 mph
(W 39 kph)
- 7SM
12:35
Mostly Cloudy
Hazy
27°F / -3°C 12°F / -11°C 54% 29.44 in
(997 mb)
NW 20.7 mph
(NW 33 kph)
- 4SM
12:15
Mostly Cloudy
27°F / -3°C 14°F / -10°C 59% 29.47 in
(998 mb)
NW 18.4 mph
(NW 30 kph)
- 10SM
11:55
Clear
Hazy
27°F / -3°C 14°F / -10°C 59% 29.47 in
(998 mb)
NW 16.1 mph
(NW 26 kph)
- 5SM
11:35
Mostly Cloudy
25°F / -4°C 18°F / -8°C 74% 29.47 in
(998 mb)
NW 17.3 mph
(NW 28 kph)
- 7SM
11:15
Overcast
Light Snow
23°F / -5°C 18°F / -8°C 80% 29.47 in
(998 mb)
NW 17.3 mph
(NW 28 kph)
- 1 1/2SM
10:55
Mostly Cloudy
25°F / -4°C 18°F / -8°C 74% 29.47 in
(998 mb)
WNW 23 mph
(WNW 37 kph)
- 7SM
10:35
Overcast
Hazy
25°F / -4°C 18°F / -8°C 74% 29.47 in
(998 mb)
W 16.1 mph
(W 26 kph)
- 5SM
10:15
Overcast
23°F / -5°C 18°F / -8°C 80% 29.47 in
(998 mb)
SSW 12.7 mph
(SSW 20 kph)
- 7SM
09:55
Overcast
Light Snow
21°F / -6°C 18°F / -8°C 86% 29.47 in
(998 mb)
SSW 13.8 mph
(SSW 22 kph)
- 2SM
09:35
Mostly Cloudy
Light Snow
21°F / -6°C 16°F / -9°C 80% 29.47 in
(998 mb)
W 16.1 mph
(W 26 kph)
- 2 1/2SM
09:15
Partly Cloudy
Hazy
19°F / -7°C 14°F / -10°C 79% 29.47 in
(998 mb)
SSW 17.3 mph
(SSW 28 kph)
- 5SM
08:55
Overcast
Light Snow
18°F / -8°C 14°F / -10°C 86% 29.47 in
(998 mb)
SSW 13.8 mph
(SSW 22 kph)
- 3SM
08:35
Overcast
Hazy
18°F / -8°C 12°F / -11°C 79% 29.5 in
(999 mb)
SSW 15 mph
(SSW 24 kph)
- 4SM
08:15
Overcast
16°F / -9°C 12°F / -11°C 86% 29.5 in
(999 mb)
SSW 16.1 mph
(SSW 26 kph)
- 7SM
07:55
Overcast
Fog And Mist
16°F / -9°C 12°F / -11°C 86% 29.5 in
(999 mb)
SSW 17.3 mph
(SSW 28 kph)
- 5SM
07:35
Overcast
16°F / -9°C 10°F / -12°C 79% 29.5 in
(999 mb)
SSW 16.1 mph
(SSW 26 kph)
- 10SM
07:15
Overcast
14°F / -10°C 10°F / -12°C 85% 29.5 in
(999 mb)
SSW 18.4 mph
(SSW 30 kph)
- 7SM
06:55
Overcast
Fog And Mist
14°F / -10°C 10°F / -12°C 85% 29.5 in
(999 mb)
SSW 18.4 mph
(SSW 30 kph)
- 3SM
06:35
Overcast
Light Snow
14°F / -10°C 10°F / -12°C 85% 29.5 in
(999 mb)
SSW 16.1 mph
(SSW 26 kph)
- 5SM
06:15
Overcast
Light Snow
14°F / -10°C 9°F / -13°C 79% 29.5 in
(999 mb)
SSW 16.1 mph
(SSW 26 kph)
- 2 1/2SM
05:55
Overcast
Light Snow
14°F / -10°C 9°F / -13°C 79% 29.5 in
(999 mb)
SSW 19.6 mph
(SSW 32 kph)
- 4SM
05:35
Overcast
12°F / -11°C 7°F / -14°C 79% 29.53 in
(1000 mb)
SSW 18.4 mph
(SSW 30 kph)
- 10SM
05:15
Overcast
Light Snow
12°F / -11°C 5°F / -15°C 73% 29.53 in
(1000 mb)
SSW 15 mph
(SSW 24 kph)
- 10SM
04:55
Overcast
Light Snow
10°F / -12°C 5°F / -15°C 79% 29.56 in
(1001 mb)
SSW 15 mph
(SSW 24 kph)
- 7SM
04:35
Overcast
Light Snow
10°F / -12°C 5°F / -15°C 79% 29.56 in
(1001 mb)
SSW 16.1 mph
(SSW 26 kph)
- 10SM
04:15
Overcast
Light Snow
10°F / -12°C 5°F / -15°C 79% 29.56 in
(1001 mb)
SW 18.4 mph
(SW 30 kph)
- 7SM
03:55
Overcast
Light Snow
9°F / -13°C 3°F / -16°C 78% 29.59 in
(1002 mb)
SW 16.1 mph
(SW 26 kph)
- 2 1/2SM
03:35
Overcast
Light Snow
9°F / -13°C 1°F / -17°C 72% 29.59 in
(1002 mb)
SW 18.4 mph
(SW 30 kph)
- 4SM
03:15
Overcast
Light Snow
9°F / -13°C 1°F / -17°C 72% 29.62 in
(1003 mb)
SW 18.4 mph
(SW 30 kph)
- 3SM
02:55
Overcast
9°F / -13°C °F / -18°C 66% 29.65 in
(1004 mb)
SW 19.6 mph
(SW 32 kph)
- 10SM
02:35
Overcast
9°F / -13°C °F / -18°C 66% 29.68 in
(1005 mb)
SW 18.4 mph
(SW 30 kph)
- 10SM
02:15
Overcast
7°F / -14°C °F / -18°C 72% 29.68 in
(1005 mb)
SW 16.1 mph
(SW 26 kph)
- 10SM
01:55
Overcast
7°F / -14°C -2°F / -19°C 66% 29.71 in
(1006 mb)
SW 17.3 mph
(SW 28 kph)
- 10SM
01:35
Overcast
7°F / -14°C -2°F / -19°C 66% 29.71 in
(1006 mb)
SW 16.1 mph
(SW 26 kph)
- 10SM
01:15
Overcast
7°F / -14°C -2°F / -19°C 66% 29.74 in
(1007 mb)
SW 19.6 mph
(SW 32 kph)
- 10SM
00:55
Overcast
7°F / -14°C -2°F / -19°C 66% 29.77 in
(1008 mb)
SW 19.6 mph
(SW 32 kph)
- 10SM
00:35
Overcast
5°F / -15°C -2°F / -19°C 72% 29.8 in
(1009 mb)
SW 19.6 mph
(SW 32 kph)
- 10SM
00:15
Overcast
5°F / -15°C -2°F / -19°C 72% 29.83 in
(1010 mb)
SW 19.6 mph
(SW 32 kph)
- 10SM
Time Weather Temperature Dewpoint Humidity Pressure Winds Precip Visibility


Weather for websites

WeatherForYou.com, LLC is not responsible for any damages or problems caused by this service. Current weather conditions are obtained from the closest station including government and personal stations which may have varying degrees of accuracy. Weather forecasts are derived from the NOAA NDFD. Like all things, this site belongs to Jesus Christ... He just trusts me to maintain it. If you have any questions or comments email webmaster@weatherforyou.com

Copyright © 2015, WeatherForYou.com LLC. All rights reserved.